Location: *
(49.0044°N, 9.5056°E)
Time: 16:57:06
(UTC+00:00)

SJ-6B - Pass Details

Date: 22 September 2019
Orbit: 509 x 583 km, 97.6° (Epoch: 15 October)

Event Time Altitude Azimuth Distance (km) Brightness Sun altitude
Exits shadow 18:10:36 - 133° (SE) 2,089 5.3 -8.9°
Reaches altitude 10° 18:11:08 10° 130° (SE) 1,890 5.0 -9.0°
Maximum altitude 18:14:46 31° 68° (ENE) 1,015 3.7 -9.6°
Drops below altitude 10° 18:18:22 10° 5° (N) 1,875 5.6 -10.2°
Sets 18:20:40 0° 355° (N) 2,765 6.6 -10.6°
